When you browse on this site, cookies collect data to enhance your experience and personalize the content and advertising you see.
Visit our Privacy Policy to learn more. By continuing to use the site, you agree to this use of cookies and data.
  • In United Kingdom
  • List of Countries
  • For 7 days
  • Water Temperature
  • Weather Map
  • Weather Widgets
  • user-avatar
    Login

    Hourly Weather Cisnadie

    Today, 18 September, Wednesday

    Time Temperature Precipitation Wind Pressure Humidity
    00:00 +16°C° 0 mm 2 mps 716 mmHg 74%
    01:00 +16°C° 0 mm 2 mps 715 mmHg 74%
    02:00 +16°C° 0 mm 3 mps 715 mmHg 76%
    03:00 +16°C° 0.4 mm 3 mps 715 mmHg 80%
    04:00 +16°C° 0.4 mm 3 mps 715 mmHg 84%
    05:00 +16°C° 0.4 mm 3 mps 715 mmHg 87%
    06:00 +14°C° 0.3 mm 3 mps 716 mmHg 85%
    07:00 +14°C° 0.3 mm 3 mps 716 mmHg 82%
    08:00 +13°C° 0.3 mm 3 mps 717 mmHg 80%
    09:00 +14°C° 0 mm 4 mps 717 mmHg 68%
    10:00 +16°C° 0 mm 5 mps 718 mmHg 57%
    11:00 +17°C° 0 mm 6 mps 718 mmHg 46%
    12:00 +17°C° 0 mm 6 mps 719 mmHg 41%
    13:00 +19°C° 0 mm 5 mps 719 mmHg 35%
    14:00 +19°C° 0 mm 5 mps 719 mmHg 30%
    15:00 +19°C° 0 mm 5 mps 719 mmHg 30%
    16:00 +18°C° 0 mm 4 mps 719 mmHg 31%
    17:00 +18°C° 0 mm 4 mps 720 mmHg 31%
    18:00 +14°C° 0 mm 3 mps 720 mmHg 35%
    19:00 +13°C° 0 mm 2 mps 720 mmHg 40%
    20:00 +10°C° 0 mm 2 mps 720 mmHg 45%
    21:00 +10°C° 0 mm 1 mps 720 mmHg 46%
    22:00 +9°C° 0 mm 1 mps 721 mmHg 48%
    23:00 +9°C° 0 mm 1 mps 721 mmHg 49%

    Tomorrow, 19 September, Thursday

    Time Temperature Precipitation Wind Pressure Humidity
    00:00 +9°C° 0 mm 1 mps 721 mmHg 50%
    01:00 +8°C° 0 mm 1 mps 721 mmHg 50%
    02:00 +8°C° 0 mm 1 mps 721 mmHg 51%
    03:00 +8°C° 0 mm 1 mps 721 mmHg 51%
    04:00 +7°C° 0 mm 1 mps 721 mmHg 51%
    05:00 +7°C° 0 mm 1 mps 721 mmHg 51%
    06:00 +8°C° 0 mm 0 mps 721 mmHg 48%
    07:00 +9°C° 0 mm 0 mps 722 mmHg 45%
    08:00 +11°C° 0 mm 0 mps 722 mmHg 42%
    09:00 +14°C° 0 mm 1 mps 722 mmHg 38%
    10:00 +16°C° 0 mm 1 mps 722 mmHg 33%
    11:00 +18°C° 0 mm 2 mps 722 mmHg 29%
    12:00 +18°C° 0 mm 3 mps 722 mmHg 27%
    13:00 +19°C° 0 mm 3 mps 722 mmHg 26%
    14:00 +19°C° 0 mm 3 mps 722 mmHg 24%
    15:00 +19°C° 0 mm 3 mps 721 mmHg 27%
    16:00 +18°C° 0 mm 3 mps 721 mmHg 29%
    17:00 +17°C° 0 mm 3 mps 721 mmHg 31%
    18:00 +14°C° 0 mm 3 mps 721 mmHg 38%
    19:00 +12°C° 0 mm 2 mps 721 mmHg 46%
    20:00 +10°C° 0 mm 1 mps 721 mmHg 53%
    21:00 +9°C° 0 mm 1 mps 722 mmHg 56%
    22:00 +8°C° 0 mm 1 mps 722 mmHg 59%
    23:00 +8°C° 0 mm 1 mps 722 mmHg 62%

    Day after tomorrow, 20 September, Friday

    Time Temperature Precipitation Wind Pressure Humidity
    00:00 +7°C° 0 mm 1 mps 722 mmHg 65%
    01:00 +7°C° 0 mm 1 mps 722 mmHg 67%
    02:00 +6°C° 0 mm 2 mps 722 mmHg 70%
    03:00 +6°C° 0 mm 1 mps 722 mmHg 71%
    04:00 +6°C° 0 mm 1 mps 722 mmHg 73%
    05:00 +6°C° 0 mm 1 mps 722 mmHg 75%
    06:00 +7°C° 0 mm 1 mps 722 mmHg 69%
    07:00 +9°C° 0 mm 1 mps 723 mmHg 63%
    08:00 +10°C° 0 mm 1 mps 723 mmHg 57%
    09:00 +12°C° 0 mm 1 mps 723 mmHg 51%
    10:00 +13°C° 0 mm 2 mps 723 mmHg 44%
    11:00 +15°C° 0 mm 2 mps 724 mmHg 38%
    12:00 +15°C° 0 mm 2 mps 723 mmHg 35%
    13:00 +16°C° 0 mm 3 mps 723 mmHg 33%
    14:00 +17°C° 0 mm 3 mps 723 mmHg 30%
    15:00 +16°C° 0 mm 3 mps 723 mmHg 32%
    16:00 +16°C° 0 mm 3 mps 723 mmHg 33%
    17:00 +14°C° 0 mm 3 mps 722 mmHg 34%
    18:00 +12°C° 0 mm 3 mps 723 mmHg 39%
    19:00 +10°C° 0 mm 2 mps 723 mmHg 44%
    20:00 +7°C° 0 mm 2 mps 724 mmHg 49%
    21:00 +7°C° 0 mm 2 mps 724 mmHg 50%
    22:00 +8°C° 0 mm 1 mps 724 mmHg 51%
    23:00 +7°C° 0 mm 1 mps 724 mmHg 52%

    21 September, Saturday

    Time Temperature Precipitation Wind Pressure Humidity
    00:00 +7°C° 0 mm 1 mps 724 mmHg 54%
    01:00 +7°C° 0 mm 1 mps 724 mmHg 55%
    02:00 +6°C° 0 mm 1 mps 725 mmHg 56%
    03:00 +6°C° 0 mm 1 mps 725 mmHg 57%
    04:00 +6°C° 0 mm 1 mps 725 mmHg 57%
    05:00 +6°C° 0 mm 1 mps 725 mmHg 58%
    06:00 +7°C° 0 mm 1 mps 725 mmHg 53%
    07:00 +8°C° 0 mm 0 mps 725 mmHg 49%
    08:00 +10°C° 0 mm 0 mps 726 mmHg 44%
    09:00 +13°C° 0 mm 1 mps 726 mmHg 40%
    10:00 +15°C° 0 mm 1 mps 726 mmHg 35%
    11:00 +18°C° 0 mm 1 mps 726 mmHg 31%
    12:00 +19°C° 0 mm 1 mps 726 mmHg 30%
    13:00 +19°C° 0 mm 1 mps 726 mmHg 29%
    14:00 +20°C° 0 mm 1 mps 725 mmHg 27%
    15:00 +20°C° 0 mm 1 mps 725 mmHg 29%
    16:00 +19°C° 0 mm 1 mps 725 mmHg 31%
    17:00 +19°C° 0 mm 1 mps 724 mmHg 34%
    18:00 +15°C° 0 mm 1 mps 724 mmHg 40%
    19:00 +13°C° 0 mm 1 mps 724 mmHg 46%
    20:00 +10°C° 0 mm 1 mps 724 mmHg 52%
    21:00 +10°C° 0 mm 1 mps 724 mmHg 53%
    22:00 +10°C° 0 mm 1 mps 724 mmHg 54%
    23:00 +9°C° 0 mm 1 mps 724 mmHg 55%

    22 September, Sunday

    Time Temperature Precipitation Wind Pressure Humidity
    00:00 +9°C° 0 mm 1 mps 724 mmHg 55%
    01:00 +9°C° 0 mm 1 mps 724 mmHg 55%
    02:00 +9°C° 0 mm 1 mps 724 mmHg 56%
    03:00 +8°C° 0 mm 1 mps 723 mmHg 56%
    04:00 +8°C° 0 mm 1 mps 723 mmHg 56%
    05:00 +8°C° 0 mm 1 mps 723 mmHg 56%
    06:00 +10°C° 0 mm 1 mps 723 mmHg 53%
    07:00 +11°C° 0 mm 1 mps 723 mmHg 49%
    08:00 +13°C° 0 mm 1 mps 723 mmHg 45%
    09:00 +15°C° 0 mm 1 mps 723 mmHg 40%
    10:00 +19°C° 0 mm 1 mps 723 mmHg 35%
    11:00 +20°C° 0 mm 2 mps 723 mmHg 31%
    12:00 +21°C° 0 mm 2 mps 723 mmHg 29%
    13:00 +23°C° 0 mm 2 mps 722 mmHg 28%
    14:00 +24°C° 0 mm 2 mps 722 mmHg 27%
    15:00 +24°C° 0 mm 1 mps 721 mmHg 30%
    16:00 +23°C° 0 mm 1 mps 721 mmHg 32%
    17:00 +22°C° 0 mm 1 mps 720 mmHg 35%
    18:00 +20°C° 0 mm 1 mps 720 mmHg 40%
    19:00 +16°C° 0 mm 2 mps 720 mmHg 45%
    20:00 +14°C° 0 mm 2 mps 719 mmHg 49%
    21:00 +13°C° 0 mm 2 mps 719 mmHg 48%
    22:00 +13°C° 0 mm 2 mps 719 mmHg 47%
    23:00 +13°C° 0 mm 1 mps 719 mmHg 46%

    23 September, Monday

    Time Temperature Precipitation Wind Pressure Humidity
    00:00 +13°C° 0 mm 1 mps 719 mmHg 45%
    01:00 +13°C° 0 mm 1 mps 719 mmHg 43%
    02:00 +13°C° 0 mm 1 mps 719 mmHg 42%
    03:00 +14°C° 0 mm 1 mps 719 mmHg 42%
    04:00 +14°C° 0 mm 1 mps 718 mmHg 41%
    05:00 +14°C° 0 mm 1 mps 718 mmHg 41%
    06:00 +15°C° 0 mm 1 mps 718 mmHg 42%
    07:00 +18°C° 0 mm 1 mps 718 mmHg 42%
    08:00 +19°C° 0 mm 1 mps 718 mmHg 42%
    09:00 +20°C° 0 mm 1 mps 718 mmHg 41%
    10:00 +20°C° 0 mm 1 mps 718 mmHg 39%
    11:00 +21°C° 0 mm 1 mps 718 mmHg 38%
    12:00 +21°C° 0 mm 1 mps 717 mmHg 40%
    13:00 +21°C° 0 mm 1 mps 717 mmHg 42%
    14:00 +21°C° 0 mm 1 mps 716 mmHg 44%
    15:00 +21°C° 0 mm 1 mps 716 mmHg 48%
    16:00 +20°C° 0 mm 1 mps 716 mmHg 51%
    17:00 +20°C° 0 mm 1 mps 715 mmHg 55%
    18:00 +19°C° 0.1 mm 1 mps 715 mmHg 59%
    19:00 +18°C° 0.1 mm 1 mps 715 mmHg 64%
    20:00 +16°C° 0.1 mm 1 mps 715 mmHg 68%
    21:00 +16°C° 0.1 mm 1 mps 715 mmHg 72%
    22:00 +15°C° 0.1 mm 1 mps 715 mmHg 75%
    23:00 +15°C° 0.1 mm 1 mps 715 mmHg 79%
    Show more